QPF
0.04 0.03 0.02 0.01 0.02 0.02 0.03 0.04 0.05 0.03 0.02 0.02 0.02 0.03 0.03 0.03 0.03 0.04 0.05 0.06 0.07 0.09 0.08 0.05 0.03 0.02 0.03 0.03 0.03 0.03 0.02 0.02 0.04 0.05 0.05 0.05 0.07 0.09
0.05 0.04 0.03 0.03 0.02 0.03 0.04 0.05 0.06 0.04 0.03 0.02 0.02 0.02 0.03 0.04 0.03 0.02 0.02 0.04 0.05 0.04 0.04 0.03 0.02 0.02 0.01 0.01 0.01 0.02 0.01 0.02 0.02 0.03 0.02 0.03 0.05 0.06
0.03 0.03 0.03 0.03 0.03 0.03 0.04 0.04 0.04 0.04 0.03 0.03 0.03 0.02 0.02 0.03 0.03 0.02 0.01 0.01 0.02 0.03 0.03 0.02 0.02 0.02 0.02 0.01 0.01 0.01 0.01 0.01 0.01 0.01 0.01 0.02 0.03 0.03
0.04 0.04 0.03 0.04 0.04 0.04 0.04 0.04 0.05 0.04 0.04 0.03 0.02 0.02 0.01 0.02 0.02 0.02 0.02 0.02 0.02 0.02 0.01 0.02 0.02 0.02 0.02 0.01 0.01 0.01 0.01 0.02 0.02 0.01 0.01 0.02 0.02 0.02
0.04 0.04 0.04 0.05 0.04 0.04 0.03 0.04 0.05 0.04 0.03 0.03 0.02 0.02 0.01 0.01 0.01 0.01 0.01 0.02 0.02 0.02 0.02 0.02 0.03 0.03 0.02 0.01 0.01 0.01 0.00 0.01 0.01 0.01 0.02 0.03 0.03 0.02
0.04 0.04 0.05 0.04 0.03 0.03 0.02 0.03 0.04 0.04 0.02 0.02 0.01 0.02 0.02 0.01 0.01 0.01 0.01 0.02 0.03 0.03 0.02 0.02 0.03 0.04 0.03 0.02 0.01 0.01 0.01 0.00 0.00 0.01 0.01 0.03 0.03 0.04
0.04 0.04 0.05 0.05 0.05 0.04 0.03 0.03 0.04 0.04 0.04 0.03 0.02 0.02 0.02 0.02 0.02 0.03 0.03 0.03 0.02 0.02 0.01 0.02 0.02 0.02 0.02 0.02 0.02 0.01 0.01 0.01 0.01 0.01 0.02 0.02 0.03 0.03
0.02 0.02 0.04 0.05 0.04 0.04 0.04 0.04 0.04 0.05 0.04 0.04 0.03 0.03 0.03 0.03 0.04 0.05 0.04 0.04 0.02 0.01 0.02 0.02 0.02 0.02 0.03 0.03 0.03 0.02 0.02 0.02 0.02 0.02 0.03 0.03 0.03 0.03
0.02 0.02 0.03 0.04 0.04 0.03 0.04 0.05 0.05 0.06 0.05 0.05 0.04 0.03 0.03 0.03 0.03 0.03 0.02 0.02 0.01 0.02 0.04 0.02 0.01 0.01 0.02 0.04 0.05 0.04 0.02 0.02 0.02 0.03 0.04 0.04 0.03 0.03
0.03 0.03 0.03 0.03 0.03 0.04 0.04 0.04 0.05 0.05 0.06 0.05 0.04 0.03 0.03 0.02 0.01 0.01 0.01 0.01 0.01 0.01 0.02 0.02 0.01 0.01 0.01 0.03 0.04 0.05 0.04 0.03 0.02 0.03 0.04 0.04 0.03 0.03
0.02 0.02 0.02 0.02 0.03 0.05 0.04 0.03 0.03 0.04 0.05 0.05 0.04 0.03 0.03 0.02 0.02 0.02 0.02 0.02 0.02 0.01 0.02 0.03 0.02 0.02 0.02 0.02 0.03 0.05 0.06 0.05 0.03 0.02 0.03 0.03 0.03 0.04
0.01 0.01 0.02 0.03 0.03 0.04 0.04 0.03 0.02 0.03 0.05 0.06 0.04 0.02 0.01 0.01 0.02 0.03 0.03 0.04 0.03 0.02 0.02 0.03 0.03 0.04 0.04 0.03 0.02 0.03 0.05 0.06 0.05 0.03 0.03 0.03 0.03 0.03
0.02 0.02 0.02 0.04 0.04 0.04 0.05 0.05 0.05 0.06 0.06 0.05 0.04 0.03 0.02 0.02 0.02 0.03 0.04 0.05 0.05 0.04 0.03 0.04 0.05 0.04 0.04 0.04 0.04 0.04 0.04 0.03 0.03 0.03 0.02 0.03 0.03 0.03
0.02 0.02 0.03 0.04 0.05 0.05 0.05 0.04 0.04 0.04 0.04 0.03 0.03 0.02 0.02 0.02 0.02 0.02 0.02 0.04 0.04 0.04 0.03 0.05 0.06 0.07 0.07 0.05 0.04 0.04 0.05 0.05 0.04 0.04 0.03 0.03 0.04 0.04
0.06 0.06 0.06 0.07 0.06 0.05 0.05 0.05 0.04 0.03 0.03 0.03 0.02 0.02 0.02 0.02 0.02 0.02 0.02 0.03 0.03 0.03 0.04 0.04 0.06 0.07 0.08 0.08 0.07 0.06 0.05 0.05 0.05 0.05 0.06 0.07 0.07 0.06
0.08 0.06 0.05 0.05 0.04 0.03 0.03 0.03 0.03 0.03 0.03 0.02 0.02 0.02 0.03 0.03 0.02 0.02 0.02 0.02 0.02 0.02 0.04 0.05 0.06 0.07 0.07 0.07 0.07 0.06 0.06 0.05 0.05 0.05 0.06 0.07 0.06 0.04
0.04 0.03 0.03 0.03 0.02 0.02 0.02 0.03 0.03 0.03 0.03 0.03 0.03 0.03 0.03 0.02 0.02 0.02 0.03 0.03 0.02 0.02 0.03 0.04 0.07 0.08 0.07 0.06 0.05 0.04 0.04 0.04 0.04 0.05 0.06 0.07 0.06 0.05
0.06 0.05 0.03 0.02 0.02 0.03 0.03 0.03 0.04 0.04 0.04 0.03 0.03 0.04 0.04 0.04 0.03 0.03 0.04 0.05 0.04 0.03 0.03 0.04 0.05 0.07 0.06 0.04 0.03 0.03 0.03 0.04 0.05 0.05 0.06 0.06 0.06 0.06
0.03 0.03 0.02 0.02 0.02 0.02 0.03 0.03 0.04 0.05 0.05 0.04 0.04 0.04 0.04 0.05 0.05 0.04 0.04 0.04 0.04 0.03 0.03 0.03 0.04 0.05 0.05 0.03 0.03 0.03 0.04 0.06 0.07 0.06 0.06 0.05 0.05 0.06
0.02 0.02 0.02 0.02 0.01 0.01 0.02 0.02 0.02 0.03 0.04 0.05 0.05 0.05 0.06 0.06 0.06 0.05 0.06 0.05 0.05 0.05 0.05 0.05 0.05 0.05 0.06 0.06 0.05 0.03 0.04 0.05 0.05 0.05 0.05 0.05 0.05 0.05
0.03 0.02 0.02 0.02 0.01 0.01 0.01 0.01 0.02 0.02 0.03 0.03 0.04 0.05 0.05 0.06 0.06 0.05 0.06 0.06 0.06 0.05 0.04 0.04 0.04 0.06 0.08 0.08 0.06 0.04 0.03 0.04 0.05 0.05 0.06 0.06 0.06 0.05
0.02 0.03 0.03 0.03 0.03 0.04 0.04 0.04 0.04 0.04 0.04 0.04 0.04 0.05 0.05 0.06 0.06 0.06 0.06 0.06 0.06 0.05 0.04 0.04 0.04 0.05 0.05 0.06 0.05 0.05 0.05 0.05 0.05 0.06 0.07 0.06 0.05 0.05
0.04 0.04 0.05 0.05 0.05 0.05 0.05 0.04 0.04 0.04 0.04 0.04 0.04 0.04 0.04 0.04 0.05 0.05 0.05 0.06 0.05 0.04 0.04 0.03 0.04 0.04 0.04 0.04 0.04 0.04 0.04 0.04 0.05 0.05 0.05 0.05 0.05 0.04
MSLP
1015.41 1015.67 1015.96 1016.25 1016.51 1016.69 1016.77 1016.73 1016.57 1016.30 1015.95 1015.53 1015.09 1014.66 1014.26 1013.92 1013.64 1013.44 1013.31 1013.26 1013.27 1013.35 1013.47 1013.65 1013.84 1014.07 1014.30 1014.54 1014.79 1015.04 1015.29 1015.56 1015.84 1016.13 1016.42 1016.71 1016.98 1017.21
1014.79 1015.00 1015.25 1015.52 1015.77 1015.96 1016.08 1016.10 1016.02 1015.83 1015.57 1015.23 1014.87 1014.49 1014.13 1013.80 1013.52 1013.28 1013.12 1013.02 1012.99 1013.02 1013.11 1013.26 1013.45 1013.67 1013.92 1014.18 1014.45 1014.72 1014.99 1015.27 1015.55 1015.83 1016.11 1016.38 1016.63 1016.84
1014.34 1014.49 1014.69 1014.92 1015.14 1015.33 1015.46 1015.51 1015.47 1015.35 1015.15 1014.90 1014.60 1014.29 1013.97 1013.67 1013.40 1013.16 1012.97 1012.83 1012.75 1012.74 1012.79 1012.91 1013.08 1013.29 1013.54 1013.81 1014.09 1014.38 1014.67 1014.95 1015.23 1015.51 1015.77 1016.02 1016.25 1016.45
1014.11 1014.22 1014.37 1014.54 1014.72 1014.87 1014.97 1015.02 1014.99 1014.90 1014.75 1014.55 1014.31 1014.05 1013.78 1013.51 1013.25 1013.01 1012.80 1012.64 1012.52 1012.46 1012.47 1012.54 1012.67 1012.86 1013.09 1013.36 1013.65 1013.95 1014.25 1014.55 1014.83 1015.11 1015.37 1015.61 1015.83 1016.03
1014.14 1014.20 1014.30 1014.41 1014.53 1014.62 1014.68 1014.68 1014.64 1014.54 1014.40 1014.22 1014.02 1013.79 1013.55 1013.31 1013.07 1012.83 1012.61 1012.41 1012.26 1012.15 1012.10 1012.12 1012.20 1012.35 1012.55 1012.80 1013.08 1013.39 1013.70 1014.01 1014.32 1014.61 1014.88 1015.14 1015.38 1015.59
1014.40 1014.42 1014.47 1014.52 1014.56 1014.58 1014.57 1014.51 1014.41 1014.28 1014.12 1013.93 1013.73 1013.52 1013.31 1013.08 1012.85 1012.62 1012.39 1012.16 1011.97 1011.81 1011.70 1011.65 1011.66 1011.75 1011.90 1012.11 1012.38 1012.68 1013.00 1013.33 1013.66 1013.99 1014.31 1014.60 1014.88 1015.12
1014.81 1014.79 1014.78 1014.78 1014.75 1014.69 1014.60 1014.47 1014.30 1014.11 1013.91 1013.70 1013.49 1013.28 1013.07 1012.86 1012.64 1012.41 1012.16 1011.92 1011.68 1011.46 1011.28 1011.15 1011.08 1011.09 1011.17 1011.33 1011.56 1011.84 1012.17 1012.53 1012.90 1013.28 1013.65 1014.00 1014.32 1014.62
1015.27 1015.22 1015.16 1015.09 1015.00 1014.87 1014.70 1014.50 1014.27 1014.02 1013.77 1013.53 1013.30 1013.09 1012.88 1012.67 1012.46 1012.23 1011.98 1011.71 1011.43 1011.15 1010.90 1010.68 1010.52 1010.43 1010.43 1010.51 1010.69 1010.94 1011.26 1011.64 1012.05 1012.48 1012.91 1013.33 1013.72 1014.07
1015.69 1015.60 1015.49 1015.38 1015.22 1015.03 1014.80 1014.54 1014.26 1013.96 1013.68 1013.41 1013.17 1012.95 1012.75 1012.55 1012.35 1012.12 1011.86 1011.58 1011.26 1010.92 1010.59 1010.28 1010.02 1009.83 1009.73 1009.73 1009.84 1010.04 1010.35 1010.73 1011.17 1011.64 1012.13 1012.61 1013.07 1013.48
1016.00 1015.87 1015.72 1015.56 1015.36 1015.12 1014.85 1014.55 1014.23 1013.91 1013.60 1013.32 1013.07 1012.86 1012.67 1012.49 1012.30 1012.08 1011.83 1011.52 1011.17 1010.79 1010.39 1009.99 1009.64 1009.35 1009.15 1009.06 1009.09 1009.24 1009.50 1009.87 1010.32 1010.82 1011.35 1011.88 1012.38 1012.84
1016.20 1016.02 1015.83 1015.62 1015.39 1015.13 1014.83 1014.51 1014.17 1013.84 1013.53 1013.25 1013.01 1012.81 1012.63 1012.47 1012.30 1012.09 1011.84 1011.53 1011.16 1010.74 1010.29 1009.83 1009.40 1009.02 1008.73 1008.55 1008.50 1008.58 1008.79 1009.13 1009.55 1010.05 1010.60 1011.15 1011.68 1012.16
1016.30 1016.08 1015.85 1015.61 1015.35 1015.06 1014.75 1014.42 1014.09 1013.76 1013.45 1013.18 1012.96 1012.77 1012.61 1012.47 1012.31 1012.12 1011.88 1011.58 1011.20 1010.76 1010.28 1009.78 1009.28 1008.84 1008.48 1008.22 1008.10 1008.11 1008.26 1008.54 1008.93 1009.40 1009.92 1010.46 1010.99 1011.48
1016.36 1016.10 1015.83 1015.56 1015.28 1014.98 1014.66 1014.34 1014.00 1013.68 1013.39 1013.13 1012.92 1012.74 1012.60 1012.46 1012.32 1012.14 1011.91 1011.61 1011.24 1010.80 1010.31 1009.79 1009.27 1008.79 1008.38 1008.08 1007.89 1007.84 1007.92 1008.14 1008.46 1008.88 1009.35 1009.85 1010.35 1010.82
1016.44 1016.14 1015.85 1015.55 1015.26 1014.95 1014.63 1014.30 1013.97 1013.66 1013.37 1013.12 1012.91 1012.74 1012.59 1012.45 1012.31 1012.14 1011.91 1011.62 1011.26 1010.83 1010.35 1009.84 1009.32 1008.84 1008.41 1008.07 1007.84 1007.74 1007.77 1007.91 1008.16 1008.50 1008.90 1009.34 1009.78 1010.22
1016.57 1016.25 1015.94 1015.64 1015.33 1015.01 1014.69 1014.37 1014.04 1013.73 1013.45 1013.19 1012.97 1012.78 1012.62 1012.47 1012.31 1012.12 1011.89 1011.60 1011.25 1010.84 1010.38 1009.90 1009.40 1008.93 1008.51 1008.17 1007.92 1007.78 1007.76 1007.83 1008.01 1008.27 1008.58 1008.94 1009.32 1009.69
1016.76 1016.45 1016.14 1015.83 1015.53 1015.21 1014.90 1014.57 1014.25 1013.94 1013.65 1013.38 1013.14 1012.92 1012.73 1012.55 1012.36 1012.14 1011.89 1011.59 1011.24 1010.84 1010.41 1009.95 1009.48 1009.04 1008.65 1008.32 1008.07 1007.91 1007.84 1007.86 1007.97 1008.15 1008.38 1008.66 1008.96 1009.27
1017.00 1016.71 1016.42 1016.13 1015.84 1015.54 1015.23 1014.92 1014.61 1014.29 1014.00 1013.71 1013.45 1013.21 1012.98 1012.75 1012.51 1012.25 1011.96 1011.64 1011.27 1010.86 1010.44 1009.99 1009.56 1009.15 1008.78 1008.46 1008.22 1008.05 1007.96 1007.94 1007.99 1008.10 1008.26 1008.46 1008.69 1008.94
1017.25 1017.01 1016.76 1016.50 1016.24 1015.97 1015.68 1015.39 1015.09 1014.79 1014.49 1014.20 1013.92 1013.65 1013.38 1013.10 1012.81 1012.49 1012.15 1011.78 1011.37 1010.94 1010.50 1010.05 1009.62 1009.22 1008.86 1008.56 1008.32 1008.15 1008.04 1008.00 1008.01 1008.07 1008.18 1008.32 1008.50 1008.70
1017.47 1017.28 1017.08 1016.86 1016.64 1016.41 1016.16 1015.90 1015.63 1015.35 1015.07 1014.79 1014.51 1014.22 1013.91 1013.59 1013.25 1012.88 1012.47 1012.03 1011.57 1011.09 1010.60 1010.12 1009.67 1009.25 1008.89 1008.58 1008.33 1008.15 1008.03 1007.97 1007.97 1008.00 1008.08 1008.20 1008.35 1008.52
1017.62 1017.48 1017.33 1017.16 1016.98 1016.79 1016.58 1016.36 1016.14 1015.90 1015.65 1015.40 1015.13 1014.84 1014.52 1014.17 1013.78 1013.36 1012.89 1012.38 1011.85 1011.29 1010.74 1010.20 1009.69 1009.23 1008.82 1008.48 1008.22 1008.02 1007.89 1007.82 1007.81 1007.85 1007.93 1008.05 1008.20 1008.38
1017.67 1017.57 1017.45 1017.32 1017.17 1017.02 1016.86 1016.68 1016.51 1016.32 1016.12 1015.91 1015.67 1015.41 1015.10 1014.74 1014.33 1013.86 1013.34 1012.77 1012.16 1011.53 1010.89 1010.27 1009.68 1009.15 1008.67 1008.28 1007.97 1007.73 1007.59 1007.52 1007.51 1007.57 1007.68 1007.83 1008.02 1008.23
1017.61 1017.51 1017.41 1017.29 1017.17 1017.04 1016.91 1016.78 1016.65 1016.52 1016.38 1016.22 1016.03 1015.80 1015.53 1015.18 1014.78 1014.29 1013.74 1013.12 1012.45 1011.74 1011.02 1010.31 1009.63 1009.00 1008.45 1007.97 1007.59 1007.32 1007.14 1007.06 1007.07 1007.16 1007.31 1007.52 1007.77 1008.05
1017.41 1017.30 1017.18 1017.05 1016.93 1016.81 1016.70 1016.60 1016.51 1016.43 1016.34 1016.24 1016.11 1015.94 1015.72 1015.41 1015.03 1014.56 1014.01 1013.37 1012.66 1011.90 1011.10 1010.31 1009.54 1008.82 1008.16 1007.60 1007.15 1006.81 1006.59 1006.49 1006.51 1006.62 1006.83 1007.11 1007.45 1007.81
Thickness
5741 5739 5737 5735 5733 5731 5727 5723 5715 5708 5707 5712 5713 5716 5714 5713 5712 5710 5709 5708 5707 5706 5704 5702 5701 5700 5699 5698 5696 5695 5693 5692 5691 5690 5689 5688 5688 5687
5737 5735 5733 5731 5730 5728 5725 5721 5718 5711 5705 5708 5709 5711 5710 5709 5707 5706 5704 5703 5702 5701 5700 5698 5697 5696 5694 5693 5692 5690 5689 5687 5686 5685 5684 5683 5682 5681
5734 5731 5729 5728 5725 5723 5721 5718 5714 5711 5704 5704 5705 5705 5704 5703 5702 5700 5699 5698 5697 5696 5695 5694 5693 5692 5690 5689 5687 5685 5684 5683 5681 5680 5679 5678 5677 5676
5729 5727 5725 5724 5721 5719 5716 5713 5711 5709 5704 5699 5700 5699 5698 5698 5696 5695 5694 5693 5691 5691 5690 5690 5688 5687 5686 5684 5683 5681 5680 5678 5677 5676 5674 5673 5672 5671
5726 5723 5721 5719 5716 5714 5712 5709 5707 5706 5702 5698 5695 5695 5693 5692 5690 5689 5688 5687 5687 5686 5686 5685 5684 5682 5681 5679 5678 5677 5675 5674 5672 5671 5669 5668 5667 5665
5722 5720 5718 5716 5714 5711 5709 5705 5703 5699 5697 5693 5690 5689 5688 5687 5685 5682 5680 5681 5681 5681 5681 5680 5679 5678 5676 5675 5673 5672 5670 5669 5667 5666 5664 5663 5661 5660
5718 5716 5715 5714 5712 5709 5706 5701 5698 5694 5690 5687 5684 5683 5681 5680 5678 5678 5675 5675 5675 5676 5674 5674 5673 5672 5670 5669 5668 5666 5665 5664 5662 5661 5659 5658 5656 5655
5713 5711 5710 5709 5707 5705 5702 5700 5696 5691 5686 5683 5680 5678 5677 5676 5675 5673 5670 5668 5667 5670 5668 5667 5667 5666 5665 5664 5664 5662 5661 5659 5657 5656 5654 5653 5651 5649
5709 5706 5706 5705 5702 5699 5697 5695 5692 5690 5688 5683 5678 5676 5674 5674 5671 5668 5666 5664 5664 5666 5663 5662 5662 5660 5661 5660 5659 5657 5656 5654 5652 5650 5648 5647 5645 5643
5705 5703 5700 5698 5697 5694 5691 5688 5686 5684 5683 5680 5677 5675 5674 5672 5669 5666 5663 5661 5660 5660 5659 5655 5656 5655 5656 5655 5654 5653 5651 5649 5647 5645 5643 5641 5639 5637
5700 5698 5696 5693 5692 5689 5684 5680 5678 5678 5678 5676 5674 5672 5671 5668 5665 5660 5656 5653 5651 5652 5653 5650 5650 5648 5649 5649 5648 5647 5646 5643 5641 5640 5638 5635 5633 5631
5693 5692 5691 5688 5686 5682 5678 5674 5670 5670 5670 5669 5667 5666 5664 5662 5660 5656 5652 5648 5645 5645 5647 5644 5643 5641 5639 5642 5642 5640 5638 5637 5635 5633 5632 5630 5627 5624
5686 5685 5685 5683 5680 5677 5674 5670 5667 5665 5663 5661 5659 5657 5656 5655 5653 5651 5649 5646 5642 5641 5643 5640 5637 5635 5633 5633 5634 5633 5632 5630 5628 5626 5625 5624 5621 5619
5681 5680 5679 5677 5674 5671 5669 5667 5664 5660 5656 5653 5651 5649 5648 5647 5647 5646 5644 5642 5641 5639 5638 5636 5632 5630 5627 5625 5625 5626 5625 5624 5622 5621 5619 5617 5615 5613
5677 5675 5672 5670 5667 5664 5663 5662 5659 5654 5650 5647 5645 5644 5644 5643 5641 5639 5637 5635 5634 5633 5632 5631 5629 5626 5623 5622 5620 5619 5618 5617 5616 5614 5612 5611 5609 5607
5669 5667 5665 5663 5660 5658 5656 5654 5651 5648 5645 5643 5641 5640 5638 5636 5633 5631 5628 5626 5624 5624 5626 5625 5624 5621 5617 5617 5615 5613 5612 5611 5610 5609 5606 5605 5604 5603
5662 5658 5656 5653 5651 5649 5647 5646 5644 5641 5638 5637 5634 5632 5631 5628 5627 5625 5621 5619 5615 5615 5616 5617 5617 5615 5613 5610 5608 5608 5607 5605 5605 5603 5600 5598 5599 5599
5653 5650 5647 5645 5643 5641 5639 5637 5636 5634 5632 5630 5628 5625 5623 5621 5619 5617 5614 5611 5609 5608 5607 5607 5606 5604 5603 5603 5603 5602 5601 5600 5599 5598 5596 5594 5594 5595
5644 5642 5640 5638 5636 5634 5632 5630 5628 5627 5625 5622 5620 5618 5615 5613 5610 5608 5606 5604 5602 5600 5600 5599 5598 5595 5592 5592 5596 5597 5594 5593 5592 5591 5590 5589 5590 5591
5637 5635 5633 5631 5629 5627 5625 5623 5621 5619 5616 5614 5612 5610 5607 5604 5602 5600 5599 5597 5595 5593 5591 5591 5590 5589 5587 5587 5587 5588 5589 5587 5585 5584 5584 5583 5584 5585
5631 5629 5628 5625 5622 5620 5618 5616 5614 5612 5609 5606 5603 5601 5599 5596 5594 5593 5591 5590 5587 5585 5584 5584 5585 5585 5583 5580 5578 5579 5580 5581 5580 5578 5577 5575 5574 5574
5624 5622 5620 5618 5615 5613 5611 5608 5606 5603 5601 5598 5596 5593 5591 5588 5586 5585 5583 5581 5579 5578 5577 5577 5577 5575 5573 5571 5571 5570 5571 5572 5572 5572 5572 5572 5569 5568
5616 5614 5612 5609 5607 5604 5602 5599 5597 5594 5592 5589 5587 5585 5582 5580 5578 5576 5574 5572 5571 5569 5568 5567 5566 5565 5565 5564 5563 5563 5563 5562 5562 5561 5563 5565 5566 5567